Cloud_Cover
99 0 1 0 0 0 0 0 0 0 0 0 0 0 0 0 0 0 0 0 0 0 0 0 0 0 1 5 5 5 5 64 5
100 99 5 0 0 0 0 0 0 0 0 0 0 0 0 0 0 0 0 0 0 0 0 0 0 0 0 5 45 8 2 5 85
100 77 0 4 0 0 0 0 0 0 0 0 0 0 0 0 0 0 0 0 0 0 0 0 4 2 0 19 14 1 0 2 1
94 12 14 3 0 0 0 0 0 0 0 0 0 0 0 0 0 0 0 0 0 0 0 0 0 0 0 0 0 0 0 0 0
0 0 82 42 1 0 0 0 0 0 0 0 0 0 0 0 0 0 0 0 0 0 0 0 0 0 0 0 0 0 0 1 0
3 18 98 5 64 0 0 0 0 0 0 0 0 0 0 0 0 0 0 0 0 0 0 0 0 0 0 0 0 4 5 5 2
31 3 100 39 81 3 0 0 0 0 0 0 0 0 0 0 0 0 0 0 0 0 0 0 0 0 0 5 1 3 5 4 4
44 0 12 73 22 1 0 0 0 0 0 0 0 0 0 0 0 0 0 0 0 0 0 2 0 4 4 5 5 10 59 25 5
5 0 0 3 31 51 0 0 0 0 0 0 0 0 0 0 0 0 0 0 0 0 4 50 64 54 5 65 100 5 5 5 5
33 91 0 0 0 0 0 0 0 0 0 0 0 0 0 0 0 0 0 0 0 0 10 58 63 7 55 18 95 86 5 2 30
99 92 3 0 0 0 0 0 0 0 0 0 0 0 0 0 0 0 0 0 0 13 60 80 84 63 72 83 33 100 7 3 84
20 6 80 41 0 0 0 0 0 0 0 0 0 0 0 0 0 0 0 0 25 40 86 100 100 100 92 61 6 100 8 53 100
20 63 95 5 0 0 0 4 0 0 0 0 2 0 0 5 5 5 48 49 24 43 100 69 31 97 100 94 57 90 71 52 67
0 36 98 0 22 0 0 0 0 0 0 0 0 5 0 4 11 51 39 24 95 98 14 99 97 100 100 100 83 44 74 24 64
0 4 5 2 96 5 0 0 0 0 0 0 0 1 0 2 40 12 96 100 98 100 100 100 100 96 34 6 4 38 100 100 99
3 96 1 0 0 0 5 4 0 0 0 0 0 0 1 28 24 93 100 46 98 100 100 100 6 25 5 5 100 100 100 40 70
1 72 2 0 0 0 0 5 7 11 12 10 5 5 21 100 99 83 98 82 95 49 100 84 99 11 2 5 4 4 34 10 87
0 0 0 0 0 0 0 0 0 1 4 8 99 100 97 66 92 100 94 100 100 100 100 95 83 5 5 3 0 3 5 1 0
0 51 33 13 52 1 0 3 82 77 26 100 100 86 83 100 81 100 100 51 67 100 95 22 48 62 24 11 26 14 3 0 0
100 100 100 100 19 0 5 22 100 100 100 100 100 100 100 97 100 100 100 80 100 100 98 100 98 60 57 9 0 0 0 0 0